Orbital Elements at Epoch 2459200.5 (2020-Dec-17.0) TDB
Reference: JPL 20 (heliocentric ecliptic J2000)
Element | Value | Uncertainty (1-sigma) | Units |
e | .1481503695196905 | 1.0021e-07 | |
a | 3.132276250608107 | 4.1418e-08 | au |
q | 2.668228366642766 | 3.404e-07 | au |
i | 17.71163535128037 | 4.2833e-06 | deg |
node | 24.5568762613971 | 1.5823e-05 | deg |
peri | 164.5780706882238 | 2.2794e-05 | deg |
M | 295.9011541688835 | 1.8641e-05 | deg |
tp | 2459561.025694531002 (2021-Dec-12.52569453) | 0.00010925 | TDB |
period | 2024.829750805825 5.54 | 4.0162e-05 1.1e-07 | d yr |
n | .1777927254657979 | 3.5264e-09 | deg/d |
Q | 3.596324134573449 | 4.7554e-08 | au |
|
| | Orbit Determination Parameters
Additional Information
|